SV2BZQ-2 Weather Reports


time (UTC)temp
F
wind
direction
speed
knots
gust
knots
rain 1hr
in
rain 24hr
in
rain mn
in
humidity
%
barometer
mb
20260504021310 43 297 1.7 4.3 0.00 0.02 0.00 82 1017.9
20260504020913 43 303 1.7 4.3 0.00 0.02 0.00 82 1017.9
20260504020618 43 298 1.7 3.5 0.00 0.02 0.00 82 1017.9
20260504020429 43 304 2.6 3.5 0.00 0.02 0.00 82 1017.9
20260504020348 43 326 2.6 4.3 0.00 0.02 0.00 82 1017.9
20260504020132 43 300 2.6 5.2 0.00 0.02 0.00 82 1017.9
20260504015939 43 312 2.6 5.2 0.00 0.02 0.00 82 1017.9
20260504015920 43 312 2.6 5.2 0.00 0.02 0.00 82 1017.9
20260504015734 43 299 3.5 5.2 0.00 0.02 0.00 82 1017.9
20260504015546 42 331 3.5 5.2 0.00 0.02 0.00 82 1017.9
20260504015344 42 306 3.5 5.2 0.00 0.02 0.00 82 1018.0
20260504015314 42 313 3.5 6.1 0.00 0.02 0.00 82 1018.0
20260504015126 42 309 3.5 6.1 0.00 0.02 0.00 82 1017.9
20260504014932 42 288 3.5 6.1 0.00 0.02 0.00 82 1018.0
20260504014849 42 321 3.5 6.1 0.00 0.02 0.00 82 1018.0
20260504014728 42 319 2.6 6.1 0.00 0.02 0.00 82 1017.9
20260504014533 42 303 3.5 6.1 0.00 0.02 0.00 82 1018.0
20260504014412 42 309 3.5 6.1 0.00 0.02 0.00 81 1017.8
20260504014332 42 323 3.5 6.1 0.00 0.02 0.00 82 1017.8
20260504014130 42 321 3.5 6.1 0.00 0.02 0.00 82 1017.9
20260504013935 42 306 3.5 6.1 0.00 0.02 0.00 81 1017.9
20260504013846 42 300 3.5 6.1 0.00 0.02 0.00 81 1017.9
20260504013730 64 320 0.9 1.7 0.00 0.02 0.02 44 1015.1
20260504013701 42 313 3.5 6.1 0.00 0.02 0.00 81 1017.9
20260504013458 42 307 3.5 6.1 0.00 0.02 0.00 81 1017.9
20260504013346 42 319 3.5 5.2 0.00 0.02 0.00 81 1017.8
20260504013312 42 339 3.5 5.2 0.00 0.02 0.00 81 1017.8
20260504013118 42 294 3.5 5.2 0.00 0.02 0.00 80 1017.8
20260504012929 43 322 3.5 7.0 0.00 0.02 0.00 81 1017.7
20260504012854 43 326 3.5 7.0 0.00 0.02 0.00 80 1017.7
20260504012730 43 346 3.5 7.0 0.00 0.02 0.00 80 1017.8
20260504012529 43 297 3.5 7.0 0.00 0.02 0.00 80 1017.7
20260504012418 43 300 3.5 7.0 0.00 0.02 0.00 80 1017.8
20260504012355 43 296 3.5 7.0 0.00 0.02 0.00 80 1017.8
20260504012204 43 299 3.5 7.0 0.00 0.02 0.00 80 1017.7
20260504012031 43 281 3.5 6.1 0.00 0.02 0.00 80 1017.6
20260504011952 43 303 3.5 6.1 0.00 0.02 0.00 80 1017.6
20260504011844 43 304 3.5 6.1 0.00 0.02 0.00 80 1017.6
20260504011706 43 288 3.5 6.1 0.00 0.02 0.00 80 1017.6
20260504011555 43 306 3.5 6.1 0.00 0.02 0.00 79 1017.6
20260504011525 43 319 3.5 6.1 0.00 0.02 0.00 79 1017.6
20260504011311 43 305 3.5 6.1 0.00 0.02 0.00 79 1017.5
20260504011112 44 314 3.5 7.0 0.00 0.02 0.00 79 1017.5
20260504010957 44 315 3.5 7.0 0.00 0.02 0.00 78 1017.5
20260504010845 44 313 3.5 7.0 0.00 0.02 0.00 78 1017.3
20260504010750 44 323 3.5 7.0 0.00 0.02 0.00 78 1017.4
20260504010716 44 311 3.5 7.0 0.00 0.02 0.00 78 1017.4
20260504010536 44 321 3.5 7.0 0.00 0.02 0.00 78 1017.4
20260504010406 44 307 2.6 5.2 0.00 0.02 0.00 77 1017.3
20260504010003 45 330 2.6 5.2 0.00 0.02 0.00 77 1017.3
20260504005817 45 317 2.6 5.2 0.00 0.02 0.00 77 1017.2
20260504005400 45 313 2.6 5.2 0.00 0.02 0.00 76 1017.2
20260504005221 45 297 2.6 6.1 0.00 0.02 0.00 76 1017.2
20260504004821 46 325 2.6 7.0 0.00 0.02 0.00 76 1017.2
20260504004633 46 307 2.6 7.0 0.00 0.02 0.00 76 1017.2
20260504004448 46 300 2.6 7.0 0.00 0.02 0.00 76 1017.2
20260504004400 46 309 2.6 7.0 0.00 0.02 0.00 75 1017.2
20260504004259 46 298 2.6 7.0 0.00 0.02 0.00 75 1017.2
20260504004040 46 334 2.6 7.0 0.00 0.02 0.00 75 1017.2
20260504003823 47 290 1.7 4.3 0.00 0.02 0.00 75 1017.1
20260504003816 47 275 1.7 4.3 0.00 0.02 0.00 75 1017.1
20260504003617 47 331 1.7 4.3 0.00 0.02 0.00 75 1017.1
20260504003427 47 279 0.9 3.5 0.00 0.02 0.00 75 1017.0
20260504003334 47 310 0.9 3.5 0.00 0.02 0.00 75 1017.1
20260504003238 47 269 0.9 3.5 0.00 0.02 0.00 75 1017.1
20260504003048 47 296 0.9 3.5 0.00 0.02 0.00 75 1017.1
20260504002846 47 286 0.9 3.5 0.00 0.02 0.00 75 1017.1
20260504002617 47 306 0.9 1.7 0.00 0.02 0.00 75 1017.0
20260504002547 66 327 3.5 7.0 0.00 0.02 0.02 42 1014.9
20260504002423 47 306 0.9 1.7 0.00 0.02 0.00 75 1017.1
20260504002319 47 306 0.9 1.7 0.00 0.02 0.00 75 1017.1
20260504002216 47 306 0.9 1.7 0.00 0.02 0.00 75 1017.1
20260504002024 47 306 0.0 1.7 0.00 0.02 0.00 75 1017.1
20260504001841 47 306 0.0 1.7 0.00 0.02 0.00 75 1017.1
20260504001653 47 306 0.0 2.6 0.00 0.02 0.00 74 1017.1
20260504001529 47 331 0.9 3.5 0.00 0.02 0.00 74 1017.1
20260504001446 47 331 0.9 3.5 0.00 0.02 0.00 74 1017.1
20260504001353 47 331 0.9 3.5 0.00 0.02 0.00 74 1017.1
20260504001229 47 331 1.7 3.5 0.00 0.02 0.00 74 1017.2
20260504001042 47 333 1.7 3.5 0.00 0.02 0.00 74 1017.2
20260504001026 48 333 1.7 3.5 0.00 0.02 0.00 74 1017.1
20260504000850 48 291 0.9 2.6 0.00 0.02 0.00 74 1017.2
20260504000740 48 291 0.9 2.6 0.00 0.02 0.00 74 1017.2
20260504000713 48 291 0.9 2.6 0.00 0.02 0.00 74 1017.2
20260504000612 48 294 0.9 2.6 0.00 0.02 0.00 74 1017.2
20260504000431 48 286 0.9 2.6 0.00 0.02 0.00 74 1017.2
20260504000027 48 302 0.9 2.6 0.00 0.02 0.00 73 1017.1
20260503235911 48 302 0.9 2.6 0.00 0.02 0.00 73 1017.1
20260503235720 48 302 0.9 2.6 0.00 0.02 0.00 73 1017.2
20260503235637 48 301 0.9 2.6 0.00 0.02 0.00 73 1017.2
20260503235530 48 301 0.9 2.6 0.00 0.02 0.00 73 1017.2
20260503235350 48 313 0.0 2.6 0.00 0.02 0.00 73 1017.2
20260503234931 48 329 0.0 0.9 0.00 0.02 0.00 73 1017.2
20260503234809 48 329 0.0 2.6 0.00 0.02 0.00 73 1017.2
20260503234520 48 329 0.0 2.6 0.00 0.02 0.00 73 1017.2
20260503234429 48 329 0.9 2.6 0.00 0.02 0.00 73 1017.2
20260503234332 48 329 0.9 3.5 0.00 0.02 0.00 73 1017.2
20260503234132 48 325 0.9 3.5 0.00 0.02 0.00 73 1017.2
20260503233954 48 316 0.9 3.5 0.00 0.02 0.00 73 1017.2
20260503233905 48 325 0.9 3.5 0.00 0.02 0.00 73 1017.2
20260503233733 48 281 0.9 3.5 0.00 0.02 0.00 73 1017.2
20260503233551 48 286 0.9 3.5 0.00 0.02 0.00 73 1017.3
20260503233502 48 314 0.9 3.5 0.00 0.02 0.00 73 1017.3
20260503233401 48 291 0.0 2.6 0.00 0.02 0.00 73 1017.3
20260503233100 48 311 0.9 2.6 0.00 0.02 0.00 73 1017.4
20260503232951 48 311 0.9 2.6 0.00 0.02 0.00 73 1017.4
20260503232903 48 311 0.9 2.6 0.00 0.02 0.00 73 1017.3
20260503232743 48 311 0.9 2.6 0.00 0.02 0.00 72 1017.3
20260503232553 48 279 0.9 2.6 0.00 0.02 0.00 72 1017.4
20260503232120 48 316 0.9 1.7 0.00 0.02 0.00 72 1017.4
20260503231945 48 316 0.9 2.6 0.00 0.02 0.00 72 1017.4
20260503231758 48 315 0.9 2.6 0.00 0.02 0.00 72 1017.4
20260503231725 48 316 0.9 2.6 0.00 0.02 0.00 72 1017.4
20260503231602 48 355 0.9 2.6 0.00 0.02 0.00 72 1017.4
20260503231310 49 331 1.7 2.6 0.00 0.02 0.00 72 1017.5
20260503231211 49 331 1.7 2.6 0.00 0.02 0.00 72 1017.5
20260503231157 66 351 2.6 7.8 0.00 0.02 0.02 41 1014.8
20260503231057 49 330 1.7 3.5 0.00 0.02 0.00 72 1017.5
20260503230907 49 315 1.7 3.5 0.00 0.02 0.00 72 1017.4
20260503230721 49 281 1.7 3.5 0.00 0.02 0.00 71 1017.4
20260503230653 49 309 1.7 3.5 0.00 0.02 0.00 71 1017.4
20260503230528 49 355 1.7 3.5 0.00 0.02 0.00 71 1017.3
20260503230318 49 322 1.7 3.5 0.00 0.02 0.00 71 1017.4
20260503230248 49 315 1.7 3.5 0.00 0.02 0.00 71 1017.4
20260503230143 49 301 1.7 3.5 0.00 0.02 0.00 71 1017.3
20260503230010 49 295 0.9 2.6 0.00 0.02 0.00 71 1017.3
20260503225856 49 294 0.9 2.6 0.00 0.02 0.00 71 1017.1
20260503225815 49 294 0.9 2.6 0.00 0.02 0.00 70 1017.1
20260503225617 49 303 1.7 3.5 0.00 0.02 0.00 70 1017.1
20260503225326 49 292 1.7 3.5 0.00 0.02 0.00 70 1017.1
20260503225307 49 323 1.7 3.5 0.00 0.02 0.00 70 1017.2
20260503225151 49 18 1.7 3.5 0.00 0.02 0.00 70 1017.2
20260503225017 49 349 1.7 3.5 0.00 0.02 0.00 70 1017.2
20260503224905 49 320 1.7 3.5 0.00 0.02 0.00 70 1017.2
20260503224800 49 323 1.7 3.5 0.00 0.02 0.00 70 1017.2
20260503224634 50 313 1.7 3.5 0.00 0.02 0.00 70 1017.1
20260503224435 50 307 1.7 4.3 0.00 0.02 0.00 70 1017.2
20260503224409 50 312 1.7 4.3 0.00 0.02 0.00 70 1017.2
20260503224254 50 317 1.7 4.3 0.00 0.02 0.00 70 1017.2
20260503224115 50 309 1.7 4.3 0.00 0.02 0.00 70 1017.2
20260503223928 50 319 1.7 4.3 0.00 0.02 0.00 70 1017.3
20260503223853 50 318 1.7 4.3 0.00 0.02 0.00 70 1017.3
20260503223647 50 341 1.7 4.3 0.00 0.02 0.00 69 1017.3
20260503223454 50 314 2.6 3.5 0.00 0.02 0.00 69 1017.3
20260503223426 50 326 2.6 3.5 0.00 0.02 0.00 69 1017.3
20260503223311 50 327 2.6 4.3 0.00 0.02 0.00 69 1017.2
20260503223122 50 310 2.6 4.3 0.00 0.02 0.00 69 1017.2
20260503223015 50 342 2.6 4.3 0.00 0.02 0.00 69 1017.3
20260503222944 50 317 2.6 4.3 0.00 0.02 0.00 68 1017.2
20260503222823 50 340 2.6 4.3 0.00 0.02 0.00 68 1017.2
20260503222617 50 336 2.6 4.3 0.00 0.02 0.00 68 1017.2
20260503222554 50 325 2.6 4.3 0.00 0.02 0.00 68 1017.2
20260503222440 51 299 2.6 5.2 0.00 0.02 0.00 68 1017.3
20260503222259 51 328 2.6 5.2 0.00 0.02 0.00 68 1017.3
20260503221854 51 309 2.6 5.2 0.00 0.02 0.00 67 1017.2
20260503221702 51 322 2.6 5.2 0.00 0.02 0.00 67 1017.3
20260503221454 51 338 2.6 5.2 0.00 0.02 0.00 67 1017.3
20260503221438 51 345 3.5 5.2 0.00 0.02 0.00 67 1017.3
20260503221218 51 323 3.5 5.2 0.00 0.02 0.00 66 1017.4
20260503220958 51 322 3.5 7.0 0.00 0.02 0.00 66 1017.4
20260503220857 52 302 2.6 7.0 0.00 0.02 0.00 66 1017.4
20260503220805 52 321 2.6 7.0 0.00 0.02 0.00 66 1017.4
20260503220536 52 336 2.6 7.0 0.00 0.02 0.00 66 1017.3
20260503220322 52 327 2.6 7.0 0.00 0.02 0.00 65 1017.3
20260503220313 52 335 2.6 7.0 0.00 0.02 0.00 65 1017.3
20260503220135 52 317 2.6 7.0 0.00 0.02 0.00 65 1017.3
20260503215838 52 304 2.6 6.1 0.00 0.02 0.00 65 1017.3
20260503215729 52 292 3.5 6.1 0.00 0.02 0.00 65 1017.2
20260503215612 52 278 3.5 6.1 0.00 0.02 0.00 65 1017.2
20260503215441 53 304 3.5 6.1 0.00 0.02 0.00 64 1017.3
20260503215228 53 327 2.6 6.1 0.00 0.02 0.00 64 1017.3
20260503214849 53 294 1.7 4.3 0.00 0.02 0.00 63 1017.2
20260503214759 53 321 1.7 3.5 0.00 0.02 0.00 63 1017.3
20260503214712 53 330 0.9 3.5 0.00 0.02 0.00 63 1017.2
20260503214431 53 299 1.7 3.5 0.00 0.02 0.00 63 1017.2
20260503214215 53 300 1.7 4.3 0.00 0.02 0.00 63 1017.2
20260503214004 53 302 1.7 4.3 0.00 0.02 0.00 63 1017.2
20260503213817 53 302 1.7 4.3 0.00 0.02 0.00 62 1017.2
20260503213701 54 286 1.7 4.3 0.00 0.02 0.00 62 1017.1
20260503213558 54 315 1.7 4.3 0.00 0.02 0.00 62 1017.1
20260503213415 54 292 1.7 4.3 0.00 0.02 0.00 62 1017.2
20260503213213 54 314 1.7 3.5 0.00 0.02 0.00 62 1017.2
20260503213028 54 330 2.6 6.1 0.00 0.02 0.00 62 1017.2
20260503212824 54 325 2.6 6.1 0.00 0.02 0.00 62 1017.2
20260503212750 54 326 1.7 6.1 0.00 0.02 0.00 62 1017.2
20260503212656 54 334 1.7 6.1 0.00 0.02 0.00 61 1017.2
20260503212534 55 311 1.7 6.1 0.00 0.02 0.00 61 1017.2
20260503212135 55 280 1.7 6.1 0.00 0.02 0.00 61 1017.2
20260503211931 55 276 0.9 6.1 0.00 0.02 0.00 60 1017.2
20260503211903 66 286 4.3 8.7 0.00 0.02 0.02 40 1014.9
20260503211730 55 315 0.9 3.5 0.00 0.02 0.00 60 1017.3
20260503211638 55 315 0.9 3.5 0.00 0.02 0.00 60 1017.3
20260503211515 55 315 0.9 3.5 0.00 0.02 0.00 60 1017.2
20260503211307 55 5 0.9 3.5 0.00 0.02 0.00 60 1017.2
20260503211146 55 333 0.9 3.5 0.00 0.02 0.00 60 1017.2
20260503211111 55 331 0.9 3.5 0.00 0.02 0.00 60 1017.2
20260503211043 67 292 2.6 7.0 0.00 0.02 0.02 40 1015.3
20260503210908 55 325 0.9 3.5 0.00 0.02 0.00 59 1017.2
20260503210843 66 34 2.6 7.8 0.00 0.02 0.02 39 1015.5
20260503210707 55 313 0.9 2.6 0.00 0.02 0.00 59 1017.2
20260503210631 55 313 0.9 2.6 0.00 0.02 0.00 59 1017.2
20260503210618 66 18 3.5 8.7 0.00 0.02 0.02 40 1015.8
20260503210503 55 310 0.9 2.6 0.00 0.02 0.00 59 1017.2
20260503210332 55 283 0.9 2.6 0.00 0.02 0.00 59 1017.2
20260503210234 55 297 0.9 2.6 0.00 0.02 0.00 59 1017.2
20260503210206 55 296 0.9 2.6 0.00 0.02 0.00 59 1017.2
20260503210019 55 337 0.9 2.6 0.00 0.02 0.02 58 1017.2
20260503205855 55 355 0.9 2.6 0.00 0.02 0.02 58 1017.1
20260503205553 65 317 4.3 8.7 0.00 0.02 0.02 40 1015.9
20260503205442 56 10 0.9 2.6 0.00 0.02 0.02 58 1017.0
20260503205245 56 22 0.9 2.6 0.00 0.02 0.02 58 1017.1
20260503205123 56 22 0.9 2.6 0.00 0.02 0.02 58 1017.1
20260503205040 56 36 0.9 2.6 0.00 0.02 0.02 58 1017.1
20260503205001 65 280 5.2 10.4 0.00 0.02 0.02 40 1016.1
20260503204838 56 29 0.9 3.5 0.00 0.02 0.02 58 1017.1
20260503204646 56 44 0.9 5.2 0.00 0.02 0.02 58 1017.1
20260503204621 56 51 0.9 5.2 0.00 0.02 0.02 58 1017.1
20260503204445 56 48 0.9 5.2 0.00 0.02 0.02 58 1017.1
20260503204320 56 34 0.9 5.2 0.00 0.02 0.02 58 1017.1
20260503204220 56 42 0.9 5.2 0.00 0.02 0.02 58 1017.1
20260503204135 56 62 0.9 5.2 0.00 0.02 0.02 58 1017.1
20260503204015 56 11 0.9 5.2 0.00 0.02 0.02 58 1017.0
20260503203851 56 43 0.9 3.5 0.00 0.02 0.02 57 1017.0
20260503203534 63 74 4.3 9.6 0.00 0.02 0.02 41 1016.4
20260503203320 56 48 0.9 3.5 0.00 0.02 0.02 57 1017.0
20260503203221 56 48 0.9 3.5 0.00 0.02 0.02 57 1017.1
20260503203138 56 26 0.9 3.5 0.00 0.02 0.02 57 1017.0
20260503203009 56 46 0.9 3.5 0.00 0.02 0.02 57 1017.1
20260503202834 56 15 0.9 2.6 0.00 0.02 0.02 57 1017.0
20260503202526 63 308 5.2 9.6 0.00 0.02 0.02 40 1016.6
20260503202513 63 263 4.3 9.6 0.00 0.02 0.02 41 1016.6
20260503202419 56 74 0.9 2.6 0.00 0.02 0.02 57 1017.1
20260503202339 63 17 3.5 9.6 0.00 0.02 0.02 42 1016.7
20260503202312 63 26 3.5 7.0 0.00 0.02 0.02 43 1016.7
20260503202222 56 90 0.9 2.6 0.00 0.02 0.02 57 1017.0
20260503202120 56 86 0.9 3.5 0.00 0.02 0.02 57 1017.0
20260503202016 56 53 0.9 3.5 0.00 0.02 0.02 57 1017.0
20260503201943 63 95 2.6 8.7 0.00 0.02 0.02 43 1017.0
20260503201814 56 63 0.9 3.5 0.00 0.02 0.02 57 1017.0
20260503201803 63 321 1.7 7.0 0.00 0.02 0.02 45 1017.1
20260503201616 56 55 0.9 3.5 0.00 0.02 0.02 57 1017.0
20260503201433 56 44 0.9 3.5 0.00 0.02 0.02 57 1017.0
20260503201312 56 71 0.9 5.2 0.00 0.02 0.02 58 1017.0
20260503201221 56 78 0.9 5.2 0.00 0.02 0.02 58 1017.0
20260503201134 56 80 0.9 5.2 0.00 0.02 0.02 57 1017.0
20260503200958 56 45 0.9 5.2 0.00 0.02 0.02 57 1017.0
20260503200603 56 38 1.7 5.2 0.00 0.02 0.02 57 1017.0
20260503200410 56 40 1.7 5.2 0.00 0.02 0.02 57 1017.0
20260503200243 60 71 3.5 6.1 0.00 0.02 0.02 50 1017.6
20260503200159 56 61 1.7 3.5 0.00 0.02 0.02 57 1017.0
20260503200117 56 51 1.7 3.5 0.00 0.02 0.02 57 1016.9
20260503200001 56 65 1.7 3.5 0.00 0.02 0.02 57 1016.9
20260503195824 56 41 0.9 3.5 0.00 0.02 0.02 57 1016.8
20260503195655 56 34 0.9 3.5 0.00 0.02 0.02 57 1016.8
20260503195632 56 95 0.9 3.5 0.00 0.02 0.02 57 1016.8
20260503195518 56 95 0.9 2.6 0.00 0.02 0.02 57 1016.8
20260503195400 56 102 0.9 3.5 0.00 0.02 0.02 57 1016.9
20260503195020 57 230 3.5 8.7 0.00 0.02 0.02 64 1017.6
20260503194933 56 102 1.7 6.1 0.00 0.02 0.02 57 1016.9
20260503194924 55 281 3.5 8.7 0.00 0.02 0.02 68 1017.7
20260503194839 55 267 5.2 10.4 0.00 0.02 0.02 68 1017.8
20260503194737 56 121 1.7 6.1 0.00 0.02 0.02 57 1016.9
20260503194615 56 72 2.6 6.1 0.00 0.02 0.02 57 1016.9
20260503194544 56 90 2.6 6.1 0.00 0.02 0.02 57 1016.9
20260503194409 55 327 5.2 10.4 0.00 0.02 0.02 69 1017.8
20260503194339 56 82 2.6 6.1 0.00 0.02 0.02 57 1016.9
20260503194148 56 99 2.6 6.1 0.00 0.02 0.02 56 1016.9
20260503194056 56 111 2.6 6.1 0.00 0.02 0.02 57 1016.9
20260503193932 56 84 1.7 6.1 0.00 0.02 0.02 57 1016.9
20260503193856 50 277 0.9 3.5 0.00 0.02 0.02 80 1017.5
20260503193738 56 51 1.7 6.1 0.00 0.02 0.02 57 1016.9
20260503193600 56 98 1.7 4.3 0.00 0.02 0.02 57 1016.9
20260503193536 56 86 1.7 4.3 0.00 0.02 0.02 57 1016.8
20260503193438 49 321 2.6 5.2 0.02 0.02 0.02 77 1017.6
20260503193333 56 55 1.7 4.3 0.00 0.02 0.02 56 1016.7
20260503193141 57 51 1.7 3.5 0.00 0.02 0.02 56 1016.7
20260503193054 57 74 1.7 3.5 0.00 0.02 0.02 56 1016.7
20260503192943 57 74 1.7 3.5 0.00 0.02 0.02 56 1016.7
20260503192811 57 99 1.7 3.5 0.00 0.02 0.02 56 1016.6
20260503192655 57 92 0.9 3.5 0.00 0.02 0.02 56 1016.6
20260503192630 57 59 0.9 3.5 0.00 0.02 0.02 56 1016.6
20260503192454 57 101 0.9 3.5 0.00 0.02 0.02 56 1016.7
20260503192332 57 50 0.9 3.5 0.00 0.02 0.02 56 1016.4
20260503192305 57 65 0.9 3.5 0.00 0.02 0.02 56 1016.6
20260503192157 57 65 0.9 3.5 0.00 0.02 0.02 56 1016.4
20260503192041 58 29 1.7 3.5 0.00 0.02 0.02 56 1016.6
20260503191653 58 37 1.7 5.2 0.00 0.02 0.02 56 1016.6
20260503191537 58 87 1.7 5.2 0.00 0.02 0.02 55 1016.4
20260503191132 58 22 1.7 5.2 0.00 0.02 0.02 55 1016.6
20260503191044 58 59 1.7 5.2 0.00 0.02 0.02 55 1016.4
20260503190913 58 89 1.7 5.2 0.00 0.02 0.02 55 1016.4
20260503190741 49 294 0.9 1.7 0.00 0.00 0.00 85 1016.6
20260503190716 58 94 1.7 5.2 0.00 0.02 0.02 55 1016.3
20260503190607 58 5 0.9 3.5 0.00 0.02 0.02 55 1016.3
20260503190538 58 55 0.9 3.5 0.00 0.02 0.02 55 1016.3
20260503190415 58 64 0.9 3.5 0.00 0.02 0.02 55 1016.4
20260503190252 58 59 0.9 3.5 0.00 0.02 0.02 55 1016.4
20260503190201 58 56 0.9 3.5 0.00 0.02 0.02 55 1016.4
20260503190038 59 53 0.9 3.5 0.00 0.02 0.02 56 1016.4
20260503185916 59 68 0.9 3.5 0.00 0.02 0.02 56 1016.4
20260503185516 59 55 0.9 3.5 0.00 0.02 0.02 56 1016.4
20260503185336 59 55 0.9 3.5 0.00 0.02 0.02 57 1016.4
20260503185137 59 57 0.9 3.5 0.00 0.02 0.02 57 1016.4
20260503185017 60 44 0.9 3.5 0.00 0.02 0.02 58 1016.4
20260503184849 60 39 0.9 3.5 0.00 0.02 0.02 57 1016.4
20260503184733 60 21 0.9 2.6 0.00 0.02 0.02 57 1016.3
20260503184622 60 21 0.9 1.7 0.00 0.02 0.02 57 1016.3
20260503184430 60 13 0.9 2.6 0.00 0.02 0.02 57 1016.4
20260503184231 60 15 0.9 2.6 0.00 0.02 0.02 57 1016.3
20260503184033 60 14 0.9 2.6 0.00 0.02 0.02 56 1016.3
20260503183914 61 15 1.7 2.6 0.00 0.02 0.02 56 1016.3
20260503183516 61 14 1.7 2.6 0.00 0.02 0.02 56 1016.3
20260503183310 61 333 0.9 2.6 0.00 0.02 0.02 56 1016.3
20260503183102 62 339 0.9 2.6 0.00 0.02 0.02 55 1016.3
20260503183053 62 340 0.9 2.6 0.00 0.02 0.02 55 1016.3
20260503182917 62 315 0.9 2.6 0.00 0.02 0.02 54 1016.3
20260503182734 62 315 0.9 1.7 0.00 0.02 0.02 53 1016.3
20260503182627 62 315 0.9 1.7 0.00 0.02 0.02 52 1016.3
20260503182500 62 305 0.9 1.7 0.00 0.02 0.02 52 1016.3
20260503182327 62 305 0.9 2.6 0.00 0.02 0.02 52 1016.1
20260503182135 62 305 0.9 2.6 0.00 0.02 0.02 52 1016.0
20260503182008 62 11 0.9 2.6 0.00 0.02 0.02 52 1016.1
20260503181840 62 48 0.9 2.6 0.00 0.02 0.02 51 1015.9
20260503181745 62 53 0.9 2.6 0.00 0.02 0.02 51 1015.9
20260503181641 62 34 0.9 2.6 0.00 0.02 0.02 51 1015.9
20260503181528 63 74 0.0 2.6 0.00 0.02 0.02 50 1015.8
20260503181317 63 28 0.0 2.6 0.00 0.02 0.02 49 1015.7
20260503181043 63 16 0.0 0.9 0.00 0.02 0.02 49 1015.7
20260503180918 63 15 0.0 0.9 0.00 0.02 0.02 49 1015.7
20260503180448 63 15 0.0 0.9 0.00 0.02 0.02 49 1015.6
20260503180256 63 15 0.0 0.9 0.00 0.02 0.02 48 1015.6
20260503180117 63 15 0.0 0.0 0.00 0.02 0.02 48 1015.6
20260503180057 63 15 0.0 0.0 0.00 0.02 0.02 47 1015.6
20260503175857 63 15 0.0 0.0 0.00 0.02 0.02 47 1015.6
20260503175708 63 15 0.0 0.0 0.00 0.02 0.02 47 1015.6
20260503175557 63 16 0.0 0.0 0.00 0.02 0.02 47 1015.6
20260503175510 63 16 0.0 0.0 0.00 0.02 0.02 47 1015.6
20260503175305 63 16 0.0 0.0 0.00 0.02 0.02 47 1015.6
20260503175040 64 15 0.0 0.0 0.00 0.02 0.02 47 1015.6
20260503174811 64 15 0.0 0.0 0.00 0.02 0.02 47 1015.6
20260503174613 64 16 0.0 0.0 0.00 0.02 0.02 47 1015.6
20260503174533 64 16 0.0 0.0 0.00 0.02 0.02 47 1015.5
20260503174410 64 15 0.0 0.0 0.00 0.02 0.02 47 1015.5
20260503174209 64 15 0.0 0.0 0.00 0.02 0.02 46 1015.5
20260503174043 64 16 0.0 0.9 0.00 0.02 0.02 46 1015.4
20260503174005 64 16 0.0 0.9 0.00 0.02 0.02 46 1015.4
20260503173814 64 15 0.0 0.9 0.00 0.02 0.02 46 1015.5
20260503173644 64 15 0.0 1.7 0.00 0.02 0.02 46 1015.4
20260503173624 64 16 0.0 1.7 0.00 0.02 0.02 46 1015.4
20260503173356 64 15 0.0 1.7 0.00 0.02 0.02 46 1015.4
20260503173205 64 15 0.0 1.7 0.00 0.02 0.02 46 1015.4
20260503173056 64 16 0.0 1.7 0.00 0.02 0.02 46 1015.4
20260503172958 64 15 0.0 1.7 0.00 0.02 0.02 46 1015.4
20260503172806 64 15 0.0 1.7 0.00 0.02 0.02 46 1015.4
20260503172637 64 16 0.0 1.7 0.00 0.02 0.02 46 1015.4
20260503172614 64 15 0.0 1.7 0.00 0.02 0.02 46 1015.3
20260503172443 64 15 0.0 1.7 0.00 0.02 0.02 46 1015.3
20260503172317 64 15 0.0 1.7 0.00 0.02 0.02 45 1015.3
20260503172219 64 16 0.0 1.7 0.00 0.02 0.02 45 1015.3
20260503172131 64 16 0.0 1.7 0.00 0.02 0.02 45 1015.3
20260503172015 64 16 0.0 1.7 0.00 0.02 0.02 45 1015.2
20260503171851 64 355 0.0 0.9 0.00 0.02 0.02 44 1015.2
20260503171835 64 321 0.0 0.9 0.00 0.02 0.02 44 1015.2
20260503171700 64 322 0.0 1.7 0.00 0.02 0.02 44 1015.2
20260503171543 64 322 0.9 1.7 0.00 0.02 0.02 44 1015.2
20260503171452 64 321 0.9 1.7 0.00 0.02 0.02 44 1015.1
20260503171341 65 322 0.9 1.7 0.00 0.02 0.02 44 1015.1
20260503171219 64 327 0.9 1.7 0.00 0.02 0.02 44 1015.1
20260503170752 64 319 0.9 1.7 0.00 0.02 0.02 44 1015.1
20260503170617 64 295 0.9 1.7 0.00 0.02 0.02 44 1015.1
20260503170454 64 295 0.9 1.7 0.00 0.02 0.02 44 1015.0
20260503170414 64 295 0.9 1.7 0.00 0.02 0.02 44 1015.1
20260503170251 64 295 0.9 1.7 0.00 0.02 0.02 44 1015.1
20260503170106 64 295 0.9 1.7 0.00 0.02 0.02 44 1015.0
20260503160200 66 292 3.5 7.0 0.00 0.02 0.02 42 1014.9
20260503151013 66 325 4.3 8.7 0.00 0.02 0.02 41 1014.9
20260503150822 66 338 4.3 8.7 0.00 0.02 0.02 41 1014.9
20260503150633 67 342 4.3 8.7 0.00 0.02 0.02 41 1015.0
20260503150530 67 288 4.3 8.7 0.00 0.02 0.02 41 1015.0
20260503150424 67 327 4.3 8.7 0.00 0.02 0.02 41 1015.0
20260503150239 67 313 4.3 8.7 0.00 0.02 0.02 41 1015.1
20260503140236 67 341 2.6 7.8 0.00 0.02 0.02 40 1015.5
20260503131242 65 96 4.3 8.7 0.00 0.02 0.02 39 1015.9
20260503131046 65 37 4.3 8.7 0.00 0.02 0.02 39 1015.8
20260503130926 65 311 4.3 8.7 0.00 0.02 0.02 40 1015.9
20260503130452 65 320 4.3 8.7 0.00 0.02 0.02 40 1015.9
20260503130311 65 19 4.3 8.7 0.00 0.02 0.02 39 1015.8
20260503130144 65 330 4.3 8.7 0.00 0.02 0.02 40 1015.9
20260503130125 65 327 4.3 8.7 0.00 0.02 0.02 40 1015.9
20260503120110 64 303 4.3 11.3 0.00 0.02 0.02 42 1016.4
20260503110715 63 25 3.5 9.6 0.00 0.02 0.02 42 1016.7
20260503110641 63 325 3.5 9.6 0.00 0.02 0.02 43 1016.7
20260503110528 63 0 3.5 9.6 0.00 0.02 0.02 43 1016.7
20260503110332 63 321 3.5 7.0 0.00 0.02 0.02 43 1016.7
20260503100228 63 95 2.6 7.0 0.00 0.02 0.02 45 1017.2
20260503090355 60 14 3.5 8.7 0.00 0.02 0.02 52 1017.6
20260503090335 60 307 3.5 8.7 0.00 0.02 0.02 52 1017.5
20260503090130 60 98 4.3 8.7 0.00 0.02 0.02 53 1017.5
20260503081338 55 322 3.5 8.7 0.00 0.02 0.02 68 1017.7
20260503081132 55 317 3.5 8.7 0.00 0.02 0.02 68 1017.8
20260503080959 55 286 3.5 8.7 0.00 0.02 0.02 68 1017.9
20260503080935 55 267 3.5 8.7 0.00 0.02 0.02 68 1017.9
20260503080817 55 267 3.5 8.7 0.00 0.02 0.02 68 1017.8
20260503080636 55 288 3.5 8.7 0.00 0.02 0.02 68 1017.8
20260503080521 55 257 4.3 8.7 0.00 0.02 0.02 68 1017.8
20260503080354 55 299 4.3 8.7 0.00 0.02 0.02 68 1017.8
20260503080234 55 309 4.3 9.6 0.00 0.02 0.02 68 1017.8
20260503080107 55 298 5.2 10.4 0.00 0.02 0.02 68 1017.8
20260503072751 53 286 4.3 7.8 0.00 0.02 0.02 69 1017.8
20260503072610 53 273 4.3 7.8 0.00 0.02 0.02 70 1017.8
20260503072458 53 309 3.5 7.8 0.00 0.02 0.02 70 1017.8
20260503072403 53 265 3.5 7.8 0.00 0.02 0.02 71 1017.8
20260503072226 53 294 3.5 7.8 0.00 0.02 0.02 72 1017.8
20260503072046 53 272 3.5 7.0 0.00 0.02 0.02 72 1017.8
20260503072029 53 281 3.5 7.0 0.00 0.02 0.02 72 1017.8
20260503071907 53 264 3.5 7.8 0.00 0.02 0.02 73 1017.8
20260503071718 52 306 3.5 7.8 0.00 0.02 0.02 74 1017.8
20260503071623 52 275 4.3 7.8 0.00 0.02 0.02 74 1017.8
20260503071524 52 267 4.3 7.8 0.00 0.02 0.02 75 1017.7
20260503071315 52 260 3.5 7.8 0.00 0.02 0.02 76 1017.7
20260503071045 52 207 3.5 7.8 0.00 0.02 0.02 77 1017.8
20260503071017 52 276 3.5 7.8 0.00 0.02 0.02 77 1017.8
20260503070752 52 279 2.6 7.8 0.00 0.02 0.02 79 1017.7
20260503070505 52 298 1.7 7.0 0.00 0.02 0.02 80 1017.7
20260503070419 52 304 1.7 7.0 0.00 0.02 0.02 80 1017.7
20260503070314 52 280 1.7 6.1 0.00 0.02 0.02 81 1017.7
20260503070138 51 285 0.9 5.2 0.00 0.02 0.02 81 1017.7
20260503060306 50 341 1.7 4.3 0.02 0.02 0.02 77 1017.5
20260503060214 50 344 0.9 4.3 0.02 0.02 0.02 77 1017.5
20260503060110 49 11 0.9 2.6 0.02 0.02 0.02 76 1017.5
20260503055117 50 250 1.7 5.2 0.02 0.02 0.02 75 1017.2
20260503054900 50 334 1.7 8.7 0.02 0.02 0.02 75 1017.3
20260503054701 50 115 1.7 8.7 0.02 0.02 0.02 75 1017.5
20260503054610 50 89 1.7 8.7 0.02 0.02 0.02 75 1017.5
20260503054510 50 337 2.6 8.7 0.02 0.02 0.02 75 1017.5
20260503054300 50 355 3.5 8.7 0.01 0.01 0.01 75 1017.6
20260503054025 50 62 3.5 8.7 0.01 0.01 0.00 76 1017.5
20260503054004 50 87 3.5 8.7 0.01 0.01 0.00 76 1017.5
20260503053812 50 32 3.5 12.2 0.00 0.00 0.00 76 1017.5
20260503053615 50 26 3.5 12.2 0.00 0.00 0.00 76 1017.6
20260503053437 50 0 3.5 12.2 0.00 0.00 0.00 76 1017.6
20260503053310 50 10 3.5 12.2 0.00 0.00 0.00 77 1017.6
20260503053109 50 49 3.5 12.2 0.00 0.00 0.00 77 1017.5
20260503052606 50 70 3.5 12.2 0.00 0.00 0.00 78 1017.5
20260503052417 50 30 3.5 11.3 0.00 0.00 0.00 79 1017.5
20260503052128 50 19 3.5 11.3 0.00 0.00 0.00 80 1017.3
20260503052042 50 5 3.5 11.3 0.00 0.00 0.00 80 1017.2
20260503051905 50 355 3.5 11.3 0.00 0.00 0.00 80 1017.3
20260503051712 50 11 3.5 11.3 0.00 0.00 0.00 81 1017.1
20260503051548 49 28 2.6 11.3 0.00 0.00 0.00 81 1017.1
20260503051510 49 91 2.6 11.3 0.00 0.00 0.00 82 1017.1
20260503051244 49 71 2.6 6.1 0.00 0.00 0.00 82 1017.1
20260503051042 49 61 2.6 7.0 0.00 0.00 0.00 83 1017.1
20260503051000 49 57 2.6 7.0 0.00 0.00 0.00 83 1017.1
20260503050904 49 71 1.7 7.0 0.00 0.00 0.00 83 1017.0
20260503050727 49 59 0.9 7.0 0.00 0.00 0.00 84 1016.9
20260503050627 49 85 0.9 7.0 0.00 0.00 0.00 84 1016.9
20260503050554 49 65 0.9 7.0 0.00 0.00 0.00 85 1016.9
20260503050415 49 48 0.0 5.2 0.00 0.00 0.00 85 1016.8
20260503050214 49 294 0.9 1.7 0.00 0.00 0.00 85 1016.7
20260503045954 49 294 0.9 1.7 0.00 0.00 0.00 85 1016.6
20260503045815 49 294 0.9 1.7 0.00 0.00 0.00 85 1016.6
20260503045423 49 294 0.9 1.7 0.00 0.00 0.00 85 1016.6
20260503045244 49 294 0.0 1.7 0.00 0.00 0.00 85 1016.6
20260503045045 49 294 0.0 1.7 0.00 0.00 0.00 85 1016.6
20260503044917 49 294 0.0 0.9 0.00 0.00 0.00 85 1016.7
20260503044713 49 294 0.0 2.6 0.00 0.00 0.00 85 1016.7
20260503044623 49 294 0.9 2.6 0.00 0.00 0.00 85 1016.7
20260503044549 49 294 0.9 2.6 0.00 0.00 0.00 85 1016.7
20260503044419 49 294 0.9 2.6 0.00 0.00 0.00 85 1016.6
20260503044207 49 294 0.9 2.6 0.00 0.00 0.00 85 1016.7
20260503044049 49 294 0.9 2.6 0.00 0.00 0.00 85 1016.4
20260503043912 49 285 0.0 2.6 0.00 0.00 0.00 85 1016.3
20260503043814 49 213 0.0 2.6 0.00 0.00 0.00 85 1016.3
20260503043650 49 260 0.0 1.7 0.00 0.00 0.00 85 1016.3
20260503043514 49 260 0.0 0.9 0.00 0.00 0.00 85 1016.3
20260503043314 49 260 0.0 2.6 0.00 0.00 0.00 85 1016.2
20260503043152 49 260 0.9 2.6 0.00 0.00 0.00 85 1016.2
20260503043023 49 260 0.9 2.6 0.00 0.00 0.00 85 1016.2
20260503042931 49 260 0.9 2.6 0.00 0.00 0.00 85 1016.2
20260503042839 49 260 0.9 2.6 0.00 0.00 0.00 85 1016.2
20260503042723 49 260 0.9 2.6 0.00 0.00 0.00 85 1016.2
20260503042600 49 309 0.0 2.6 0.00 0.00 0.00 85 1016.2
20260503042547 49 309 0.0 1.7 0.00 0.00 0.00 85 1016.2
20260503042335 49 309 0.0 0.9 0.00 0.00 0.00 85 1016.2
20260503042223 49 309 0.0 1.7 0.00 0.00 0.00 85 1016.2
20260503042123 49 309 0.0 1.7 0.00 0.00 0.00 85 1016.2
20260503042019 49 309 0.0 1.7 0.00 0.00 0.00 85 1016.2
20260503041848 49 309 0.0 1.7 0.00 0.00 0.00 85 1016.2
20260503041634 49 309 0.0 1.7 0.00 0.00 0.00 85 1016.2
20260503041616 49 309 0.9 1.7 0.00 0.00 0.00 85 1016.2
20260503041450 49 309 0.9 2.6 0.00 0.00 0.00 84 1016.2
20260503041259 49 309 0.9 2.6 0.00 0.00 0.00 84 1016.1
20260503041231 49 309 0.9 2.6 0.00 0.00 0.00 84 1016.1
20260503041131 49 309 0.9 2.6 0.00 0.00 0.00 84 1016.1
20260503040949 49 309 1.7 3.5 0.00 0.00 0.00 84 1016.1
20260503040814 49 309 1.7 3.5 0.00 0.00 0.00 84 1016.1
20260503040649 49 306 1.7 3.5 0.00 0.00 0.00 84 1016.1
20260503040525 49 332 2.6 3.5 0.00 0.00 0.00 84 1016.1
20260503040436 49 348 2.6 3.5 0.00 0.00 0.00 84 1016.1
20260503040328 49 307 1.7 3.5 0.00 0.00 0.00 84 1016.1
20260503040140 49 327 1.7 3.5 0.00 0.00 0.00 84 1016.2
20260503035945 49 311 1.7 3.5 0.00 0.00 0.00 84 1016.1
20260503035921 49 291 1.7 3.5 0.00 0.00 0.00 84 1016.1
20260503035738 49 328 1.7 3.5 0.00 0.00 0.00 84 1016.1
20260503035602 49 322 1.7 3.5 0.00 0.00 0.00 84 1016.1
20260503035207 49 315 1.7 3.5 0.00 0.00 0.00 84 1016.1
20260503035032 49 325 0.9 3.5 0.00 0.00 0.00 84 1015.9
20260503034816 49 284 0.9 2.6 0.00 0.00 0.00 85 1015.9
20260503034743 49 288 0.9 2.6 0.00 0.00 0.00 85 1015.9
20260503034522 49 291 0.9 2.6 0.00 0.00 0.00 85 1015.9
20260503034334 49 309 0.9 3.5 0.00 0.00 0.00 85 1015.9
20260503034305 49 326 0.9 3.5 0.00 0.00 0.00 85 1016.0
20260503034207 49 298 0.9 3.5 0.00 0.00 0.00 85 1016.0
20260503034036 49 298 0.9 3.5 0.00 0.00 0.00 85 1015.9
20260503033831 49 304 0.9 3.5 0.00 0.00 0.00 85 1016.0
20260503033747 49 304 0.9 3.5 0.00 0.00 0.00 85 1016.0
20260503033613 48 289 0.9 4.3 0.00 0.00 0.00 85 1015.9
20260503033413 48 22 1.7 5.2 0.00 0.00 0.00 85 1015.9
20260503033351 48 23 1.7 5.2 0.00 0.00 0.00 85 1015.9
20260503033144 48 27 1.7 6.1 0.00 0.00 0.00 85 1015.8
20260503032947 48 21 1.7 7.0 0.00 0.00 0.00 85 1015.8
20260503032839 48 42 2.6 7.0 0.00 0.00 0.00 85 1015.8
20260503032754 48 11 2.6 7.0 0.00 0.00 0.00 85 1015.8
20260503032343 48 5 1.7 7.0 0.00 0.00 0.00 85 1015.7
20260503032124 48 57 1.7 7.0 0.00 0.00 0.00 85 1015.7
20260503031904 48 72 1.7 7.0 0.00 0.00 0.00 85 1015.7
20260503031542 48 63 2.6 6.1 0.00 0.00 0.00 85 1015.7
20260503031346 48 91 1.7 6.1 0.00 0.00 0.00 85 1015.7
20260503031229 48 62 1.7 6.1 0.00 0.00 0.00 85 1015.7
20260503031041 48 24 2.6 6.1 0.00 0.00 0.00 85 1015.7
20260503030830 48 63 1.7 6.1 0.00 0.00 0.00 85 1015.7
20260503030819 48 78 1.7 6.1 0.00 0.00 0.00 85 1015.7
20260503030619 48 64 1.7 6.1 0.00 0.00 0.00 85 1015.7
20260503030350 48 66 1.7 6.1 0.00 0.00 0.00 85 1015.7
20260503030132 48 38 1.7 6.1 0.00 0.00 0.00 85 1015.9
20260503030035 48 46 1.7 6.1 0.00 0.00 0.00 85 1015.9
20260503025844 48 75 1.7 6.1 0.00 0.00 0.00 85 1015.9
20260503025631 48 59 0.9 6.1 0.00 0.00 0.00 85 1015.9
20260503025615 48 44 0.9 6.1 0.00 0.00 0.00 85 1015.9
20260503025435 48 62 0.9 6.1 0.00 0.00 0.00 85 1015.9
20260503025221 48 74 0.9 6.1 0.00 0.00 0.00 85 1015.9
20260503025125 48 284 0.0 2.6 0.00 0.00 0.00 85 1015.9
20260503025037 48 284 0.0 2.6 0.00 0.00 0.00 85 1015.9
20260503024827 48 283 0.0 1.7 0.00 0.00 0.00 85 1015.9
20260503024611 48 283 0.0 1.7 0.00 0.00 0.00 85 1015.9
20260503024546 48 284 0.0 1.7 0.00 0.00 0.00 85 1015.9
20260503024414 48 283 0.0 1.7 0.00 0.00 0.00 84 1015.9
20260503024227 48 284 0.0 1.7 0.00 0.00 0.00 84 1015.9
20260503024126 48 283 0.0 1.7 0.00 0.00 0.00 84 1015.9
20260503024036 48 284 0.0 1.7 0.00 0.00 0.00 84 1016.0
20260503023817 48 283 0.0 1.7 0.00 0.00 0.00 84 1016.0
20260503023553 48 319 0.0 0.0 0.00 0.00 0.00 84 1016.0
20260503023530 48 325 0.0 0.0 0.00 0.00 0.00 84 1016.0
20260503023326 48 327 0.0 0.9 0.00 0.00 0.00 84 1016.0
20260503023102 48 314 0.0 1.7 0.00 0.00 0.00 84 1015.9
20260503023003 48 314 0.0 1.7 0.00 0.00 0.00 84 1015.9
20260503022847 48 314 0.0 1.7 0.00 0.00 0.00 84 1015.9
20260503022653 48 315 0.0 1.7 0.00 0.00 0.00 84 1015.8
20260503022511 48 314 0.0 1.7 0.00 0.00 0.00 84 1015.9
20260503022447 48 314 0.0 1.7 0.00 0.00 0.00 84 1015.9
20260503022310 48 315 0.0 1.7 0.00 0.00 0.00 84 1015.9
20260503022035 48 298 0.0 1.7 0.00 0.00 0.00 84 1015.8
20260503021641 48 329 0.0 0.9 0.00 0.00 0.00 83 1015.9
20260503021509 48 329 0.0 0.9 0.00 0.00 0.00 83 1015.8